| time (UTC) | temp C | wind direction | speed KPH | gust KPH | rain 1hr cm | rain 24hr cm | rain mn cm | humidity % | barometer mb |
| 20260505091531 | 7 | 15 | 0.0 | 14.5 | 0.00 | 1.50 | 0.00 | 76 | 1008.3 |
| 20260505090039 | 7 | 12 | 0.0 | 4.8 | 0.00 | 1.50 | 0.00 | 78 | 1007.9 |
| 20260505084526 | 7 | 16 | 0.0 | 12.9 | 0.00 | 1.50 | 0.00 | 79 | 1007.8 |
| 20260505083026 | 6 | 15 | 0.0 | 1.6 | 0.00 | 1.50 | 0.00 | 78 | 1007.6 |
| 20260505081522 | 7 | 17 | 0.0 | 1.6 | 0.00 | 1.50 | 0.00 | 78 | 1007.5 |
| 20260505080019 | 7 | 16 | 0.0 | 6.4 | 0.00 | 1.52 | 0.00 | 77 | 1007.2 |
| 20260505074517 | 7 | 17 | 0.0 | 6.4 | 0.00 | 1.52 | 0.00 | 77 | 1007.2 |
| 20260505073028 | 7 | 15 | 0.0 | 1.6 | 0.00 | 1.52 | 0.00 | 77 | 1006.9 |
| 20260505071518 | 7 | 17 | 0.0 | 14.5 | 0.00 | 1.52 | 0.00 | 76 | 1006.6 |
| 20260505070010 | 7 | 15 | 0.0 | 14.5 | 0.00 | 1.68 | 0.00 | 74 | 1006.4 |
| 20260505064523 | 7 | 15 | 0.0 | 19.3 | 0.00 | 1.68 | 0.00 | 74 | 1005.9 |
| 20260505063005 | 7 | 16 | 0.0 | 16.1 | 0.00 | 1.68 | 0.00 | 73 | 1005.6 |
| 20260505061501 | 8 | 15 | 0.0 | 9.7 | 0.00 | 1.68 | 0.00 | 74 | 1005.3 |
| 20260505060103 | 8 | 17 | 0.0 | 14.5 | 0.00 | 1.68 | 0.00 | 74 | 1005.1 |
| 20260505054625 | 8 | 17 | 0.0 | 8.0 | 0.00 | 1.68 | 0.00 | 74 | 1005.0 |
| 20260505053111 | 8 | 16 | 0.0 | 8.0 | 0.00 | 1.68 | 0.00 | 74 | 1004.8 |
| 20260505051554 | 8 | 15 | 1.6 | 24.1 | 0.00 | 1.68 | 0.00 | 75 | 1004.6 |
| 20260505041555 | 9 | 17 | 3.2 | 29.0 | 0.00 | 1.85 | 0.00 | 75 | 1004.3 |
| 20260505040044 | 9 | 18 | 1.6 | 27.4 | 0.00 | 2.29 | 0.00 | 74 | 1004.0 |
| 20260505034542 | 9 | 14 | 3.2 | 25.7 | 0.00 | 2.29 | 0.00 | 74 | 1003.8 |
| 20260505033042 | 9 | 16 | 0.0 | 8.0 | 0.00 | 2.29 | 0.00 | 73 | 1003.6 |
| 20260505031551 | 9 | 19 | 1.6 | 25.7 | 0.00 | 2.29 | 0.00 | 72 | 1003.5 |
| 20260505030036 | 9 | 13 | 0.0 | 6.4 | 0.00 | 2.84 | 2.29 | 71 | 1003.3 |
| 20260505024540 | 8 | 13 | 0.0 | 4.8 | 0.00 | 2.84 | 2.29 | 70 | 1003.1 |
| 20260505023034 | 9 | 13 | 0.0 | 4.8 | 0.00 | 2.84 | 2.29 | 69 | 1002.8 |
| 20260505021533 | 9 | 15 | 0.0 | 1.6 | 0.00 | 2.84 | 2.29 | 67 | 1002.9 |
| 20260505020033 | 9 | 13 | 0.0 | 4.8 | 0.00 | 3.38 | 2.29 | 66 | 1002.6 |
| 20260505014535 | 9 | 13 | 0.0 | 14.5 | 0.00 | 3.38 | 2.29 | 65 | 1002.4 |
| 20260505013027 | 9 | 15 | 0.0 | 4.8 | 0.00 | 3.38 | 2.29 | 64 | 1002.3 |
| 20260505011532 | 8 | 15 | 0.0 | 12.9 | 0.00 | 3.38 | 2.29 | 64 | 1002.1 |
| 20260505010025 | 8 | 13 | 0.0 | 6.4 | 0.00 | 3.84 | 2.29 | 65 | 1002.0 |
| 20260505004541 | 8 | 13 | 0.0 | 4.8 | 0.00 | 3.84 | 2.29 | 67 | 1001.7 |
| 20260505003023 | 8 | 43 | 0.0 | 1.6 | 0.00 | 3.84 | 2.29 | 63 | 1001.9 |
| 20260505001522 | 8 | 12 | 0.0 | 6.4 | 0.00 | 3.84 | 2.29 | 61 | 1001.7 |
| 20260505000034 | 8 | 12 | 0.0 | 3.2 | 0.00 | 4.17 | 2.29 | 60 | 1001.5 |
| 20260504234517 | 8 | 13 | 0.0 | 6.4 | 0.00 | 4.17 | 2.29 | 60 | 1001.2 |
| 20260504233017 | 9 | 13 | 0.0 | 14.5 | 0.00 | 4.17 | 2.29 | 59 | 1000.8 |
| 20260504231515 | 10 | 15 | 0.0 | 22.5 | 0.00 | 4.17 | 2.29 | 57 | 1000.5 |
| 20260504230012 | 10 | 13 | 0.0 | 41.8 | 0.00 | 4.42 | 2.29 | 57 | 1000.5 |
| 20260504224512 | 10 | 13 | 3.2 | 25.7 | 0.00 | 4.42 | 2.29 | 57 | 1000.4 |
| 20260504223011 | 10 | 14 | 3.2 | 27.4 | 0.00 | 4.42 | 2.29 | 57 | 1000.1 |
| 20260504221510 | 10 | 16 | 1.6 | 32.2 | 0.00 | 4.42 | 2.29 | 58 | 999.9 |
| 20260504220011 | 10 | 17 | 9.7 | 35.4 | 0.00 | 4.60 | 2.29 | 58 | 999.7 |
| 20260504214505 | 10 | 17 | 1.6 | 37.0 | 0.00 | 4.60 | 2.29 | 58 | 999.5 |
| 20260504213004 | 10 | 17 | 3.2 | 41.8 | 0.00 | 4.60 | 2.29 | 58 | 999.5 |
| 20260504211502 | 11 | 17 | 8.0 | 38.6 | 0.00 | 4.60 | 2.29 | 58 | 999.1 |
| 20260504210100 | 10 | 15 | 4.8 | 38.6 | 0.00 | 4.80 | 2.29 | 60 | 998.8 |
| 20260504204602 | 10 | 17 | 8.0 | 40.2 | 0.00 | 4.80 | 2.29 | 61 | 998.7 |
| 20260504203102 | 9 | 17 | 1.6 | 53.1 | 0.00 | 4.80 | 2.29 | 63 | 998.8 |
| 20260504201552 | 9 | 16 | 8.0 | 40.2 | 0.00 | 4.80 | 2.29 | 65 | 998.2 |
| 20260504200049 | 9 | 16 | 11.3 | 54.7 | 0.00 | 4.83 | 2.29 | 66 | 998.0 |
| 20260504194548 | 9 | 16 | 3.2 | 43.5 | 0.00 | 4.83 | 2.29 | 69 | 997.8 |
| 20260504193044 | 8 | 15 | 14.5 | 41.8 | 0.00 | 4.83 | 2.29 | 70 | 997.4 |
| 20260504191542 | 8 | 16 | 4.8 | 56.3 | 0.00 | 4.83 | 2.29 | 74 | 997.0 |
| 20260504190038 | 8 | 15 | 4.8 | 46.7 | 0.00 | 4.83 | 2.29 | 77 | 996.7 |
| 20260504184535 | 8 | 16 | 3.2 | 40.2 | 0.00 | 4.83 | 2.29 | 77 | 996.5 |
| 20260504183032 | 7 | 17 | 11.3 | 51.5 | 0.00 | 4.83 | 2.29 | 80 | 996.2 |
| 20260504181532 | 7 | 15 | 6.4 | 51.5 | 0.00 | 4.83 | 2.29 | 83 | 996.2 |
| 20260504180026 | 6 | 15 | 14.5 | 53.1 | 0.00 | 4.83 | 2.29 | 85 | 996.2 |
| 20260504174525 | 6 | 17 | 1.6 | 40.2 | 0.05 | 4.83 | 2.29 | 87 | 995.6 |
| 20260504173022 | 6 | 15 | 4.8 | 41.8 | 0.15 | 4.83 | 2.29 | 89 | 995.1 |
| 20260504171519 | 6 | 15 | 8.0 | 54.7 | 0.25 | 4.83 | 2.29 | 89 | 994.3 |